Location: ????????
(60.4333°N, 46.4710°E)
Time: 19:19:40
(UTC+00:00)

Cosmos 2322 Rocket - Pass Details

Date: 25 November 2020
Orbit: 834 x 849 km, 71.0° (Epoch: 16 January)

Event Time Altitude Azimuth Distance (km) Brightness Sun altitude
Rises 16:37:05 0° 291° (WNW) 3,415 6.5 -32.3°
Reaches altitude 10° 16:39:54 10° 303° (WNW) 2,477 5.4 -32.6°
Enters shadow 16:44:09 28° 350° (N) 1,547 3.7 -33.1°
